[[{"header":{"parameterUnit":"m.s-1","parameterCategory":2,"la1":30.2991,"la2":30.254,"lo1":-89.0895,"lo2":-89.0444,"dy":0.0017,"dx":0.0017,"nx":28,"ny":28,"refTime":"2026-01-07T03:00:00:Z","depth":"0","parameterNumber":2,"parameterNumberName":"U-component_of_CURRENTS"},"data":[0,0,0,0,0,0,0,0,0,0,0,0,0,0,0,0,0,0,0,0,0,0,0,0,0,0,0,0,0,0,0,0,0,0,0,0,0,0,0,0,0,0,0,0,0,0,0,0,0,0,0,0,0,0,0,0,0,0,0.371,0.3711,0,0.3655,0.3653,0.3651,0.3483,0.3481,0.3479,0.3476,0.3098,0.309,0.3082,0,0,0,0,0,0,0,0,0,0,0,0,0,0.3612,0.3614,0.371,0.3711,0.3712,0.3655,0.3653,0.3651,0.3484,0.3481,0.3478,0.3475,0.3101,0.3091,0.3082,0,0,0,0,0,0,0,0,0,0,0,0,0,0.3602,0.3615,0.371,0.3632,0.3626,0.3655,0.3653,0.365,0.3484,0.3481,0.3477,0.3474,0.3104,0.3092,0.308,0.3078,0,0,0.3044,0.3039,0,0,0,0,0,0,0,0,0.3603,0.3604,0.3643,0.3638,0.3631,0.3585,0.348,0.3448,0.3485,0.3523,0.3476,0.3472,0.3243,0.322,0.3201,0.306,0.3044,0.3043,0.3036,0.3031,0.3028,0,0,0,0,0,0,0,0.3604,0.3605,0.3673,0.3645,0.3637,0.3581,0.3574,0.3473,0.3386,0.3519,0.3511,0.3529,0.3235,0.3213,0.319,0.3038,0.3044,0.3033,0.3026,0.3021,0.2909,0.2913,0,0,0,0,0,0,0.3648,0.3607,0.3675,0.3673,0.3624,0.3587,0.3579,0.3591,0.3394,0.3367,0.3532,0.3522,0.3235,0.3204,0.3176,0.3206,0.3031,0.302,0.3013,0.2905,0.291,0.2914,0,0,0,0,0,0,0.3646,0.3654,0.3678,0.365,0.3651,0.3594,0.3609,0.3593,0.3576,0.341,0.3373,0.3534,0.3231,0.3192,0.313,0.3187,0.3015,0.3004,0.29,0.2906,0.2912,0.3235,0,0,0,0,0,0,0.3643,0.3654,0.3672,0.3654,0.3655,0.3702,0.3613,0.3595,0.36,0.3585,0.34,0.3361,0.3225,0.315,0.3119,0.3167,0.2995,0.2895,0.2903,0.291,0.3219,0.3251,0.3279,0,0,0,0,0,0.364,0.3675,0.3673,0.3682,0.3683,0.3705,0.3699,0.3636,0.3604,0.3605,0.3514,0.3367,0.3176,0.3145,0.3107,0.3153,0.2891,0.2901,0.2909,0.3206,0.3245,0.3278,0,0,0,0,0,0,0.3629,0.3664,0.3659,0.3699,0.3713,0.3682,0.3688,0.3668,0.3603,0.3579,0.3418,0.3375,0.3351,0.3217,0.3187,0.3148,0.3009,0.3012,0.3247,0.3283,0.3312,0.3308,0.2985,0,0,0,0,0,0.3651,0.3688,0.3709,0.3743,0.3758,0.3736,0.374,0.371,0.3665,0.3633,0.3528,0.3421,0.3364,0.3296,0.3212,0.3179,0.3128,0.3186,0.3217,0.3243,0.3218,0.3285,0.332,0.2945,0.2945,0.2944,0,0,0.3657,0.3686,0.3703,0.3746,0.3744,0.3773,0.3723,0.3746,0.3763,0.36,0.3581,0.3526,0.3389,0.3373,0.3346,0.3258,0.3331,0.3255,0.3278,0.3237,0.3299,0.3335,0.3368,0.2951,0.295,0.2949,0,0,0.369,0.3719,0.3756,0.3781,0.3817,0.3813,0.3838,0.3836,0.3822,0.3825,0.3744,0.3745,0.3601,0.3559,0.3508,0.365,0.3511,0.3612,0.3726,0.3796,0.3828,0.3854,0.388,0.3906,0.3601,0.3602,0.3602,0,0.3691,0.3743,0.3769,0.3812,0.3836,0.3844,0.3879,0.389,0.387,0.3875,0.3838,0.3781,0.3694,0.3707,0.377,0.3718,0.3713,0.3606,0.3839,0.3864,0.3886,0.3905,0.393,0.3618,0.3617,0.3615,0.3613,0,0.375,0.3788,0.3818,0.3874,0.3905,0.3942,0.3978,0.4007,0.4012,0.4012,0.4052,0.4005,0.395,0.3971,0.3903,0.402,0.3957,0.3902,0.3757,0.3944,0.3951,0.3972,0.3642,0.3636,0.3631,0.3627,0,0,0.3741,0.3836,0.3841,0.3872,0.3939,0.3968,0.4034,0.4082,0.4112,0.4148,0.4186,0.4212,0.4205,0.4153,0.4121,0.4193,0.4397,0.4121,0.4117,0.416,0.4534,0.4523,0.4541,0.4397,0.4402,0.4405,0.4493,0,0.3766,0.3846,0.3891,0.3958,0.3997,0.404,0.4093,0.4143,0.4172,0.4214,0.4254,0.4264,0.4268,0.4264,0.4364,0.4352,0.4456,0.4375,0.4327,0.4324,0.4306,0.4568,0.4407,0.4475,0.4511,0.4515,0.4517,0,0.3794,0.3846,0.3909,0.3993,0.4013,0.405,0.4125,0.4172,0.4246,0.4271,0.4335,0.4336,0.4439,0.4425,0.4565,0.4512,0.4561,0.4582,0.4584,0.4457,0.4352,0.4281,0.4508,0.433,0.4546,0.4544,0.4542,0,0.3758,0.3853,0.3899,0.3929,0.4026,0.4056,0.41,0.4172,0.4198,0.4293,0.4306,0.4431,0.445,0.4574,0.4635,0.4607,0.4784,0.4728,0.4777,0.4773,0.4559,0.4531,0.4607,0.4886,0.4886,0.4886,0.4885,0,0.376,0.3794,0.388,0.3906,0.3949,0.4026,0.4059,0.4127,0.4191,0.4218,0.4317,0.436,0.4497,0.4593,0.4677,0.4796,0.4825,0.4845,0.4828,0.4671,0.4653,0.4415,0.4321,0.4889,0.4888,0.4888,0.4887,0,0.3699,0.3764,0.3817,0.391,0.3927,0.395,0.4001,0.4025,0.4102,0.414,0.4167,0.4306,0.4446,0.4581,0.4749,0.4812,0.4804,0.4973,0.4767,0.4728,0.4599,0.4528,0.4448,0.4332,0.504,0.5041,0.5042,0,0.3667,0.3689,0.378,0.3788,0.3818,0.385,0.3862,0.396,0.3982,0.4101,0.4117,0.4265,0.4382,0.4629,0.4783,0.496,0.4803,0.4891,0.4837,0.4626,0.4533,0.4377,0.4273,0.4682,0.4679,0.4677,0.4676,0,0.3589,0.3624,0.3663,0.369,0.3707,0.3728,0.3759,0.3771,0.3885,0.3938,0.4045,0.4152,0.4401,0.4523,0.4756,0.4847,0.4641,0.4859,0.4695,0.4335,0.4109,0.3973,0.4555,0.4659,0.466,0.4662,0.4663,0.4663,0.3498,0.3506,0.3555,0.3569,0.3591,0.3604,0.3584,0.3644,0.3692,0.3758,0.3929,0.4025,0.4217,0.454,0.4616,0.4568,0.4573,0.445,0.4404,0.4283,0.4112,0.4666,0.4721,0.4723,0.4724,0.4726,0.4727,0,0.3375,0.34,0.342,0.3445,0.3428,0.3486,0.3503,0.3469,0.3495,0.3626,0.3724,0.3826,0.3963,0.4097,0.4187,0.4102,0.3975,0.3978,0.368,0.3621,0.4158,0.4081,0.3931,0.3931,0.3931,0.3932,0.3932,0.3932,0.3307,0.3299,0.3329,0.3276,0.3281,0.3223,0.3217,0.3201,0.3255,0.3256,0.3278,0.3381,0.3556,0.3723,0.3663,0.3609,0.3328,0.3248,0.3228,0.3545,0.3582,0.3617,0.3524,0.326,0.326,0.2554,0.2548,0.2544]},{"header":{"parameterUnit":"m.s-1","parameterCategory":2,"la1":30.2991,"la2":30.254,"lo1":-89.0895,"lo2":-89.0444,"dy":0.0017,"dx":0.0017,"nx":28,"ny":28,"refTime":"2026-01-07T03:00:00:Z","depth":"0","parameterNumber":3,"parameterNumberName":"V-component_of_CURRENTS"},"data":[0,0,0,0,0,0,0,0,0,0,0,0,0,0,0,0,0,0,0,0,0,0,0,0,0,0,0,0,0,0,0,0,0,0,0,0,0,0,0,0,0,0,0,0,0,0,0,0,0,0,0,0,0,0,0,0,0,0,-0.0616,-0.0616,0,-0.0652,-0.0652,-0.0653,-0.0691,-0.0691,-0.0691,-0.0692,-0.0724,-0.0724,-0.0725,0,0,0,0,0,0,0,0,0,0,0,0,0,-0.0601,-0.0602,-0.0616,-0.0616,-0.0616,-0.0652,-0.0652,-0.0653,-0.069,-0.0691,-0.0691,-0.0692,-0.0724,-0.0724,-0.0725,0,0,0,0,0,0,0,0,0,0,0,0,0,-0.0621,-0.0602,-0.0616,-0.0638,-0.064,-0.0652,-0.0652,-0.0653,-0.069,-0.0691,-0.0691,-0.0692,-0.0723,-0.0724,-0.0725,-0.0719,0,0,-0.0727,-0.0728,0,0,0,0,0,0,0,0,-0.062,-0.0622,-0.0634,-0.0636,-0.0639,-0.0666,-0.0659,-0.0675,-0.069,-0.0673,-0.0692,-0.0692,-0.0702,-0.0705,-0.0713,-0.0721,-0.0722,-0.0728,-0.0728,-0.0728,-0.0729,0,0,0,0,0,0,0,-0.0619,-0.0621,-0.0632,-0.0634,-0.0637,-0.0654,-0.0657,-0.0663,-0.0686,-0.0675,-0.0677,-0.0678,-0.0704,-0.0712,-0.0714,-0.0723,-0.0728,-0.0728,-0.0729,-0.0729,-0.0735,-0.0735,0,0,0,0,0,0,-0.0609,-0.0619,-0.0631,-0.0633,-0.0628,-0.0653,-0.0657,-0.0658,-0.0686,-0.069,-0.0678,-0.068,-0.0711,-0.0713,-0.0715,-0.0699,-0.0728,-0.0729,-0.073,-0.0736,-0.0735,-0.0735,0,0,0,0,0,0,-0.0608,-0.0609,-0.0629,-0.0625,-0.0629,-0.0652,-0.0653,-0.0658,-0.0666,-0.0688,-0.0692,-0.0679,-0.0711,-0.0714,-0.0724,-0.0701,-0.0729,-0.073,-0.0736,-0.0736,-0.0735,-0.0674,0,0,0,0,0,0,-0.0608,-0.0609,-0.061,-0.0625,-0.0629,-0.0628,-0.0653,-0.0659,-0.0665,-0.0668,-0.069,-0.0694,-0.0712,-0.0723,-0.0725,-0.0703,-0.0731,-0.0736,-0.0736,-0.0735,-0.0676,-0.0672,-0.0667,0,0,0,0,0,-0.0607,-0.0602,-0.061,-0.0611,-0.0628,-0.0628,-0.0631,-0.0651,-0.0664,-0.0661,-0.0684,-0.0694,-0.072,-0.0723,-0.0726,-0.0703,-0.0737,-0.0736,-0.0735,-0.0678,-0.0672,-0.0667,0,0,0,0,0,0,-0.0586,-0.0605,-0.0614,-0.0613,-0.0616,-0.0633,-0.0636,-0.0646,-0.0662,-0.0669,-0.0691,-0.0696,-0.0698,-0.0712,-0.0714,-0.0706,-0.0729,-0.0729,-0.0685,-0.0679,-0.0675,-0.0649,-0.0731,0,0,0,0,0,-0.0582,-0.0587,-0.0601,-0.0595,-0.0601,-0.0617,-0.0621,-0.0632,-0.0646,-0.0654,-0.0667,-0.0685,-0.0697,-0.0697,-0.0713,-0.0704,-0.0688,-0.0692,-0.0687,-0.0683,-0.0665,-0.0613,-0.0601,-0.0733,-0.0733,-0.0733,0,0,-0.0567,-0.0581,-0.058,-0.0591,-0.0601,-0.06,-0.0621,-0.0623,-0.0616,-0.0653,-0.0652,-0.0672,-0.0694,-0.0691,-0.0691,-0.0697,-0.0641,-0.0682,-0.0679,-0.0662,-0.0611,-0.0598,-0.0586,-0.0732,-0.0732,-0.0732,0,0,-0.0539,-0.0557,-0.0553,-0.056,-0.0573,-0.0583,-0.058,-0.0594,-0.0599,-0.0599,-0.0626,-0.0625,-0.0647,-0.0646,-0.0653,-0.0629,-0.0625,-0.0643,-0.0587,-0.0538,-0.0525,-0.0515,-0.0487,-0.0474,-0.0632,-0.0632,-0.0632,0,-0.0521,-0.052,-0.0547,-0.0547,-0.0547,-0.0573,-0.0559,-0.0568,-0.0579,-0.0567,-0.0592,-0.0596,-0.0618,-0.0593,-0.0594,-0.0613,-0.0596,-0.0604,-0.0528,-0.0517,-0.0507,-0.0481,-0.0467,-0.0629,-0.0629,-0.063,-0.063,0,-0.0492,-0.0493,-0.049,-0.0502,-0.0504,-0.0497,-0.0511,-0.0507,-0.0517,-0.0516,-0.0497,-0.0522,-0.0515,-0.0527,-0.0558,-0.0499,-0.0516,-0.0532,-0.0534,-0.0489,-0.0466,-0.0453,-0.0625,-0.0626,-0.0627,-0.0628,0,0,-0.0441,-0.0466,-0.0463,-0.0456,-0.048,-0.0468,-0.0463,-0.0447,-0.0411,-0.0432,-0.0378,-0.041,-0.0412,-0.042,-0.0445,-0.0408,-0.0337,-0.0439,-0.0437,-0.0397,-0.0236,-0.0283,-0.0274,-0.0336,-0.0334,-0.0331,-0.0252,0,-0.0406,-0.0392,-0.0416,-0.0387,-0.0378,-0.0401,-0.0376,-0.0366,-0.0361,-0.0318,-0.0332,-0.0309,-0.0375,-0.0363,-0.0336,-0.0337,-0.0298,-0.0358,-0.0298,-0.0296,-0.0331,-0.0258,-0.0258,-0.019,-0.0239,-0.0237,-0.0235,0,-0.0368,-0.0364,-0.0335,-0.0315,-0.031,-0.0293,-0.0247,-0.0233,-0.0198,-0.0192,-0.0176,-0.019,-0.0161,-0.0216,-0.0172,-0.0208,-0.0214,-0.0215,-0.0212,-0.0263,-0.0317,-0.0243,-0.0164,-0.0351,-0.0215,-0.0217,-0.0218,0,-0.0309,-0.03,-0.0271,-0.027,-0.0256,-0.023,-0.0216,-0.0183,-0.015,-0.011,-0.0076,-0.0056,-0.0038,-0.0031,-0.0074,-0.0107,-0.0016,-0.0058,-0.0102,-0.0106,-0.0097,-0.0105,-0.0176,0.0,0.0,0.0,-0.0,0,-0.0264,-0.0235,-0.0236,-0.0219,-0.0153,-0.0166,-0.0089,-0.0077,-0.0031,0.0033,-0.0005,0.0049,0.0011,0.0034,-0.0004,-0.0013,0.0039,-0.0066,-0.0073,-0.0081,-0.0089,-0.0246,-0.0358,0.0003,0.0002,0.0002,0.0001,0,-0.0201,-0.0211,-0.017,-0.0145,-0.0128,-0.008,-0.003,0.0028,0.0049,0.0131,0.0142,0.0151,0.0177,0.0135,0.0154,0.0075,-0.0023,0.0054,0.0028,0.0016,-0.0223,-0.0331,-0.0382,-0.0465,0.0035,0.0035,0.0034,0,-0.0167,-0.0144,-0.0109,-0.0077,-0.0064,-0.0004,0.0045,0.0067,0.012,0.0197,0.0247,0.0281,0.0334,0.0318,0.0206,0.0156,-0.0011,0.0069,0.0003,-0.0215,-0.034,-0.0421,-0.0493,0.0039,0.0039,0.0039,0.0039,0,-0.0096,-0.0088,-0.0056,0.0003,0.0052,0.011,0.0171,0.0228,0.0271,0.0355,0.0464,0.0519,0.0468,0.0436,0.0301,0.021,-0.0089,0.0058,-0.0133,-0.0309,-0.0429,-0.052,-0.0063,0.0036,0.0037,0.0037,0.0037,0.0037,-0.0036,0.0001,0.0035,0.0099,0.0151,0.0227,0.0313,0.0389,0.0509,0.0687,0.0671,0.085,0.0671,0.0503,0.0291,-0.0108,-0.0104,-0.0216,-0.0315,-0.0367,-0.0493,-0.0066,-0.0008,-0.0009,-0.0009,-0.0009,-0.0009,0,0.0041,0.0072,0.0129,0.0205,0.0284,0.029,0.0408,0.0532,0.0716,0.0903,0.1046,0.112,0.0841,0.0506,-0.0025,-0.038,-0.0536,-0.0596,-0.0711,-0.0756,-0.0327,-0.0378,-0.044,-0.044,-0.044,-0.0439,-0.0439,-0.0439,0.0087,0.0151,0.0174,0.0312,0.0375,0.0523,0.0613,0.0801,0.0982,0.1295,0.1487,0.1572,0.1303,0.0192,-0.0587,-0.0781,-0.1063,-0.1114,-0.1253,-0.0987,-0.096,-0.0934,-0.1009,-0.1202,-0.1203,-0.1634,-0.1638,-0.1642]}],[{"header":{"parameterUnit":"m.s-1","parameterCategory":2,"la1":30.2991,"la2":30.254,"lo1":-89.0895,"lo2":-89.0444,"dy":0.0017,"dx":0.0017,"nx":28,"ny":28,"refTime":"2026-01-07T03:00:00:Z","depth":"2","parameterNumber":2,"parameterNumberName":"U-component_of_CURRENTS"},"data":[0,0,0,0,0,0,0,0,0,0,0,0,0,0,0,0,0,0,0,0,0,0,0,0,0,0,0,0,0,0,0,0,0,0,0,0,0,0,0,0,0,0,0,0,0,0,0,0,0,0,0,0,0,0,0,0,0,0,0.1536,0.1537,0,0.1631,0.1632,0.1633,0.1691,0.1692,0.1692,0.1692,0.1744,0.1745,0.1746,0,0,0,0,0,0,0,0,0,0,0,0,0,0.1397,0.1399,0.1536,0.1537,0.1538,0.1631,0.1632,0.1634,0.1691,0.1692,0.1692,0.1692,0.1743,0.1745,0.1746,0,0,0,0,0,0,0,0,0,0,0,0,0,0.1471,0.14,0.1536,0.1578,0.1583,0.1631,0.1632,0.1634,0.1691,0.1692,0.1692,0.1692,0.1743,0.1744,0.1746,0.1748,0,0,0.1751,0.1752,0,0,0,0,0,0,0,0,0.1467,0.1476,0.1571,0.1575,0.1581,0.165,0.1602,0.167,0.1691,0.165,0.1692,0.1693,0.1708,0.1712,0.173,0.175,0.1752,0.1751,0.1752,0.1753,0.1753,0,0,0,0,0,0,0,0.1462,0.1472,0.1574,0.1572,0.1578,0.159,0.1601,0.1616,0.1675,0.1654,0.1658,0.1669,0.171,0.1728,0.1732,0.1753,0.1751,0.1753,0.1754,0.1754,0.1845,0.1847,0,0,0,0,0,0,0.145,0.1468,0.1571,0.1576,0.1524,0.1592,0.1605,0.1627,0.1676,0.1684,0.1668,0.1671,0.1725,0.173,0.1733,0.1795,0.1753,0.1755,0.1756,0.1844,0.1846,0.1847,0,0,0,0,0,0,0.1447,0.1459,0.1567,0.1523,0.1538,0.1594,0.1619,0.1629,0.1663,0.1687,0.1694,0.1694,0.1726,0.1731,0.1773,0.1795,0.1755,0.1757,0.1842,0.1845,0.1847,0.1881,0,0,0,0,0,0,0.1443,0.1457,0.1472,0.1523,0.154,0.1605,0.1619,0.163,0.1668,0.1673,0.1711,0.1716,0.1727,0.1771,0.1775,0.1797,0.1758,0.1841,0.1843,0.1846,0.1878,0.1884,0.189,0,0,0,0,0,0.1438,0.1458,0.1473,0.1485,0.1558,0.1605,0.1615,0.1656,0.1669,0.1687,0.1722,0.1715,0.179,0.1774,0.1778,0.1801,0.1839,0.1843,0.1846,0.1876,0.1883,0.189,0,0,0,0,0,0,0.1408,0.1467,0.1485,0.1523,0.1564,0.1615,0.1635,0.1662,0.1706,0.1712,0.1734,0.1742,0.1787,0.179,0.1771,0.1836,0.1813,0.1817,0.1835,0.1842,0.1847,0.1843,0.1759,0,0,0,0,0,0.1407,0.1437,0.1491,0.1521,0.154,0.1588,0.1613,0.1643,0.1685,0.1706,0.1736,0.1767,0.1801,0.1818,0.1844,0.1877,0.1912,0.1895,0.19,0.1905,0.1906,0.1987,0.2,0.1858,0.1858,0.1858,0,0,0.1403,0.1438,0.1456,0.1516,0.1548,0.1584,0.1605,0.1647,0.1682,0.1702,0.1756,0.1787,0.1815,0.1861,0.188,0.1867,0.1969,0.1909,0.1913,0.1911,0.1992,0.2006,0.2018,0.186,0.186,0.1859,0,0,0.141,0.1442,0.1471,0.1503,0.1555,0.1585,0.1599,0.166,0.1692,0.1744,0.1775,0.1821,0.1865,0.19,0.1919,0.1968,0.1997,0.1977,0.2001,0.208,0.2092,0.2104,0.2188,0.2206,0.1978,0.1978,0.1979,0,0.1404,0.1451,0.1485,0.1518,0.1547,0.1586,0.1623,0.1658,0.1728,0.1762,0.1762,0.1867,0.1882,0.1955,0.1973,0.1979,0.2036,0.1972,0.2088,0.21,0.2111,0.2194,0.2213,0.1981,0.198,0.198,0.198,0,0.1436,0.1472,0.1488,0.1544,0.1576,0.1612,0.1661,0.1702,0.1738,0.1782,0.1864,0.1904,0.197,0.1981,0.1989,0.2079,0.2101,0.2087,0.207,0.2127,0.2211,0.2231,0.1983,0.1983,0.1982,0.1982,0,0,0.1434,0.1499,0.1508,0.1533,0.1595,0.1624,0.1675,0.1744,0.1796,0.1852,0.1932,0.1984,0.2021,0.2045,0.2075,0.2132,0.2256,0.2144,0.2148,0.2226,0.2456,0.2381,0.2396,0.2275,0.2278,0.2281,0.2491,0,0.1454,0.1511,0.1543,0.1593,0.1626,0.167,0.1718,0.178,0.1839,0.1922,0.1977,0.2059,0.2042,0.2093,0.2148,0.2234,0.2308,0.2201,0.2389,0.2395,0.232,0.2416,0.22,0.2361,0.2511,0.2514,0.2517,0,0.1481,0.1516,0.1569,0.1627,0.1646,0.1679,0.1766,0.1819,0.1928,0.1983,0.2069,0.2125,0.2229,0.2201,0.2376,0.2318,0.2391,0.2444,0.2453,0.238,0.2357,0.2324,0.2392,0.255,0.2548,0.2545,0.2543,0,0.1467,0.1533,0.1573,0.1593,0.1666,0.1698,0.1744,0.1841,0.1917,0.2039,0.212,0.2228,0.2322,0.2413,0.252,0.247,0.2717,0.2659,0.2666,0.2663,0.251,0.2486,0.2791,0.279,0.279,0.2789,0.2789,0,0.1476,0.1505,0.1568,0.1587,0.1644,0.1694,0.1783,0.1842,0.1973,0.2072,0.2159,0.2272,0.2384,0.2528,0.2586,0.2705,0.2782,0.2696,0.2717,0.2517,0.2493,0.2665,0.2647,0.2797,0.2796,0.2794,0.2793,0,0.145,0.1495,0.1538,0.1609,0.1638,0.1677,0.1807,0.1871,0.1997,0.2137,0.2189,0.2364,0.2535,0.2654,0.2832,0.2804,0.291,0.2936,0.2695,0.2681,0.2784,0.2766,0.2947,0.2946,0.2945,0.2945,0.2944,0,0.144,0.1462,0.1541,0.1571,0.1602,0.1683,0.174,0.187,0.195,0.2186,0.2248,0.247,0.2596,0.2834,0.2844,0.2948,0.2995,0.2784,0.2611,0.28,0.2804,0.2787,0.277,0.2449,0.2445,0.2441,0.2438,0,0.1412,0.1442,0.1475,0.1543,0.1596,0.167,0.1762,0.1837,0.1994,0.2128,0.2314,0.2443,0.2647,0.2644,0.276,0.2774,0.2729,0.2708,0.3023,0.2416,0.234,0.234,0.2339,0.2405,0.2409,0.2411,0.2413,0.2414,0.1384,0.14,0.1451,0.1508,0.1571,0.1634,0.1694,0.1787,0.192,0.2066,0.2227,0.2337,0.2387,0.2437,0.2441,0.2449,0.2599,0.2471,0.248,0.2492,0.237,0.2294,0.233,0.2333,0.2335,0.2337,0.2339,0,0.1345,0.1376,0.1417,0.1481,0.1521,0.1592,0.1692,0.1738,0.1845,0.1934,0.2056,0.1933,0.1973,0.2084,0.2035,0.2043,0.1995,0.1983,0.189,0.1926,0.1957,0.1802,0.1615,0.1612,0.161,0.1608,0,0,0.1327,0.1342,0.1362,0.141,0.1476,0.1545,0.1603,0.1637,0.1696,0.17,0.1711,0.1818,0.1969,0.1703,0.171,0.1667,0.1774,0.1616,0.2201,0.2125,0.2152,0.2252,0.2056,0,0,0,0,0]},{"header":{"parameterUnit":"m.s-1","parameterCategory":2,"la1":30.2991,"la2":30.254,"lo1":-89.0895,"lo2":-89.0444,"dy":0.0017,"dx":0.0017,"nx":28,"ny":28,"refTime":"2026-01-07T03:00:00:Z","depth":"2","parameterNumber":3,"parameterNumberName":"V-component_of_CURRENTS"},"data":[0,0,0,0,0,0,0,0,0,0,0,0,0,0,0,0,0,0,0,0,0,0,0,0,0,0,0,0,0,0,0,0,0,0,0,0,0,0,0,0,0,0,0,0,0,0,0,0,0,0,0,0,0,0,0,0,0,0,-0.0226,-0.0228,0,-0.0427,-0.0429,-0.0431,-0.0539,-0.054,-0.054,-0.0541,-0.0579,-0.0579,-0.058,0,0,0,0,0,0,0,0,0,0,0,0,0,-0.0027,-0.0029,-0.0226,-0.0229,-0.0232,-0.0427,-0.0429,-0.0432,-0.0539,-0.054,-0.054,-0.0541,-0.0579,-0.0579,-0.058,0,0,0,0,0,0,0,0,0,0,0,0,0,-0.0154,-0.0029,-0.0225,-0.0312,-0.0322,-0.0427,-0.0429,-0.0432,-0.0539,-0.054,-0.0541,-0.0542,-0.0578,-0.0579,-0.058,-0.0564,0,0,-0.0582,-0.0582,0,0,0,0,0,0,0,0,-0.0147,-0.0161,-0.0296,-0.0306,-0.0318,-0.0463,-0.0374,-0.047,-0.0538,-0.0452,-0.0541,-0.0542,-0.0527,-0.0532,-0.0564,-0.0566,-0.0568,-0.0582,-0.0582,-0.0582,-0.0582,0,0,0,0,0,0,0,-0.0138,-0.0153,-0.0301,-0.0299,-0.0313,-0.0373,-0.0391,-0.0393,-0.0475,-0.0459,-0.0469,-0.0498,-0.0531,-0.0563,-0.0565,-0.0568,-0.0582,-0.0582,-0.0583,-0.0583,-0.0643,-0.0644,0,0,0,0,0,0,-0.0117,-0.0144,-0.0295,-0.0307,-0.0238,-0.0376,-0.0396,-0.0412,-0.0479,-0.0493,-0.0497,-0.0503,-0.0561,-0.0564,-0.0566,-0.0602,-0.0582,-0.0583,-0.0583,-0.0642,-0.0643,-0.0644,0,0,0,0,0,0,-0.0111,-0.0127,-0.0286,-0.0235,-0.026,-0.0378,-0.0395,-0.0415,-0.0465,-0.051,-0.052,-0.0529,-0.0562,-0.0565,-0.0596,-0.0602,-0.0583,-0.0584,-0.064,-0.0642,-0.0644,-0.064,0,0,0,0,0,0,-0.0104,-0.0124,-0.0121,-0.0233,-0.0263,-0.0345,-0.0396,-0.0419,-0.0483,-0.0492,-0.054,-0.0545,-0.0563,-0.0596,-0.0597,-0.0602,-0.0584,-0.0639,-0.0641,-0.0643,-0.0638,-0.0641,-0.0644,0,0,0,0,0,-0.0096,-0.0081,-0.0119,-0.0138,-0.0257,-0.0346,-0.0366,-0.0451,-0.0484,-0.0499,-0.0549,-0.0544,-0.0611,-0.0597,-0.0598,-0.0604,-0.0637,-0.064,-0.0643,-0.0637,-0.0641,-0.0644,0,0,0,0,0,0,0.0001,-0.0095,-0.0138,-0.0156,-0.0247,-0.0366,-0.0383,-0.0452,-0.0508,-0.0509,-0.0555,-0.0563,-0.0596,-0.0601,-0.0585,-0.0632,-0.0624,-0.0628,-0.062,-0.0623,-0.0626,-0.0579,-0.0585,0,0,0,0,0,0.0024,0.0013,-0.0104,-0.0122,-0.0156,-0.0273,-0.0318,-0.0383,-0.0455,-0.0484,-0.0531,-0.057,-0.0606,-0.0616,-0.0644,-0.0656,-0.0642,-0.0664,-0.0667,-0.0669,-0.0635,-0.0649,-0.0648,-0.0653,-0.0653,-0.0653,0,0,0.005,-0.0001,-0.0013,-0.0102,-0.0171,-0.0219,-0.0301,-0.0365,-0.0413,-0.047,-0.0527,-0.0578,-0.0615,-0.0649,-0.0662,-0.0652,-0.0663,-0.0673,-0.0674,-0.0638,-0.0651,-0.065,-0.0649,-0.0655,-0.0655,-0.0655,0,0,0.0097,0.0058,0.0059,-0.0004,-0.0104,-0.0175,-0.0195,-0.032,-0.0376,-0.0444,-0.0505,-0.0561,-0.0613,-0.0652,-0.0674,-0.0701,-0.0683,-0.0716,-0.068,-0.0695,-0.0693,-0.0692,-0.0676,-0.0673,-0.071,-0.071,-0.071,0,0.0127,0.011,0.0041,0.0019,-0.0026,-0.015,-0.0177,-0.0249,-0.0377,-0.0406,-0.0452,-0.0565,-0.0611,-0.0647,-0.0677,-0.0702,-0.0695,-0.0664,-0.0695,-0.0693,-0.0692,-0.0675,-0.0672,-0.071,-0.071,-0.071,-0.071,0,0.0161,0.0143,0.0141,0.0077,0.0026,-0.0017,-0.0127,-0.0182,-0.0267,-0.0347,-0.0422,-0.0514,-0.0569,-0.0616,-0.0657,-0.0679,-0.0672,-0.0702,-0.0677,-0.069,-0.0673,-0.067,-0.071,-0.071,-0.071,-0.071,0,0,0.0216,0.0174,0.0167,0.0155,0.0052,0.0012,-0.0041,-0.0128,-0.0144,-0.0281,-0.0307,-0.0435,-0.0491,-0.052,-0.0593,-0.0624,-0.0639,-0.0655,-0.0656,-0.0619,-0.0641,-0.0625,-0.062,-0.0674,-0.0674,-0.0673,-0.0633,0,0.0247,0.0249,0.0207,0.0188,0.0174,0.0079,0.0049,-0.0035,-0.0116,-0.0165,-0.0284,-0.034,-0.0453,-0.0482,-0.0536,-0.0606,-0.0628,-0.0644,-0.0648,-0.0647,-0.0617,-0.0615,-0.0615,-0.0578,-0.0629,-0.0629,-0.0628,0,0.0276,0.0277,0.028,0.0258,0.0245,0.0216,0.0167,0.0124,0.004,-0.0019,-0.01,-0.0188,-0.0272,-0.0365,-0.0472,-0.0474,-0.0546,-0.0608,-0.0608,-0.0581,-0.0624,-0.0576,-0.057,-0.0622,-0.0623,-0.0623,-0.0624,0,0.0339,0.0322,0.0335,0.0318,0.0275,0.0265,0.0236,0.0168,0.0167,0.008,0.0079,-0.0048,-0.0089,-0.0212,-0.0362,-0.0411,-0.0448,-0.0531,-0.0578,-0.0576,-0.0566,-0.0565,-0.0582,-0.0582,-0.0582,-0.0583,-0.0583,0,0.0379,0.0386,0.0369,0.0371,0.0404,0.0342,0.037,0.0322,0.03,0.0329,0.0166,0.0182,-0.0053,-0.0118,-0.0279,-0.0392,-0.0381,-0.0544,-0.0562,-0.0567,-0.0566,-0.06,-0.0602,-0.0581,-0.0581,-0.0582,-0.0582,0,0.0431,0.0417,0.0439,0.0427,0.0431,0.0451,0.047,0.0508,0.0456,0.0498,0.048,0.0377,0.0286,0.0081,-0.0086,-0.0253,-0.0384,-0.0425,-0.0399,-0.0415,-0.0525,-0.0529,-0.0481,-0.048,-0.048,-0.0479,-0.0478,0,0.0457,0.0474,0.0497,0.0534,0.0527,0.0559,0.0604,0.058,0.0634,0.0633,0.0683,0.0605,0.0585,0.0355,0.0034,-0.0209,-0.0274,-0.0366,-0.0483,-0.0491,-0.0514,-0.0518,-0.0522,-0.0471,-0.047,-0.047,-0.0469,0,0.0513,0.0518,0.0548,0.0632,0.0683,0.0754,0.0811,0.0887,0.0883,0.0937,0.102,0.1013,0.0753,0.0492,0.0128,-0.0054,-0.0342,-0.0364,-0.036,-0.0498,-0.0479,-0.0502,-0.0507,-0.0465,-0.0466,-0.0466,-0.0466,-0.0466,0.0561,0.0607,0.066,0.0741,0.0812,0.0929,0.1004,0.1108,0.1235,0.1279,0.1262,0.1203,0.0861,0.0376,0.0099,-0.0246,-0.0269,-0.0427,-0.043,-0.0433,-0.0441,-0.0422,-0.0396,-0.0396,-0.0396,-0.0396,-0.0396,0,0.0632,0.0685,0.0771,0.0872,0.0974,0.0979,0.1134,0.123,0.1407,0.1403,0.1434,0.1098,0.0807,0.0447,-0.007,-0.0354,-0.0404,-0.0424,-0.0453,-0.0456,-0.0458,-0.047,-0.0432,-0.0432,-0.0433,-0.0433,0,0,0.0675,0.0776,0.0828,0.0999,0.1058,0.1181,0.1268,0.1428,0.1472,0.1504,0.1399,0.1223,0.0826,0.0439,0.0068,-0.0182,-0.0252,-0.0225,-0.0175,-0.017,-0.0169,-0.0445,-0.0462,0,0,0,0,0]}],[{"header":{"parameterUnit":"m.s-1","parameterCategory":2,"la1":30.2991,"la2":30.254,"lo1":-89.0895,"lo2":-89.0444,"dy":0.0017,"dx":0.0017,"nx":28,"ny":28,"refTime":"2026-01-07T03:00:00:Z","depth":"4","parameterNumber":2,"parameterNumberName":"U-component_of_CURRENTS"},"data":[0,0,0,0,0,0,0,0,0,0,0,0,0,0,0,0,0,0,0,0,0,0,0,0,0,0,0,0,0,0,0,0,0,0,0,0,0,0,0,0,0,0,0,0,0,0,0,0,0,0,0,0,0,0,0,0,0,0,0.0663,0.0664,0,0.069,0.069,0.0691,0.0721,0.0722,0.0722,0.0723,0.0801,0.0803,0.0805,0,0,0,0,0,0,0,0,0,0,0,0,0,0.0608,0.0609,0.0663,0.0664,0.0664,0.069,0.069,0.0691,0.0721,0.0722,0.0722,0.0723,0.0801,0.0803,0.0805,0,0,0,0,0,0,0,0,0,0,0,0,0,0.0633,0.0609,0.0663,0.0683,0.0685,0.069,0.069,0.0691,0.0721,0.0722,0.0722,0.0723,0.08,0.0803,0.0805,0.0805,0,0,0.0813,0.0814,0,0,0,0,0,0,0,0,0.0631,0.0635,0.068,0.0681,0.0684,0.0703,0.07,0.0732,0.0721,0.0707,0.0723,0.0723,0.0773,0.0778,0.078,0.0809,0.0812,0.0813,0.0814,0.0815,0.0816,0,0,0,0,0,0,0,0.063,0.0634,0.0674,0.068,0.0682,0.068,0.0684,0.0705,0.0736,0.0708,0.071,0.0714,0.0775,0.0777,0.0782,0.0813,0.0813,0.0815,0.0816,0.0817,0.0891,0.0891,0,0,0,0,0,0,0.0628,0.0632,0.0673,0.0674,0.0659,0.068,0.0685,0.0696,0.0735,0.0741,0.0713,0.0715,0.0773,0.0779,0.0785,0.0849,0.0815,0.0818,0.0819,0.089,0.0891,0.0891,0,0,0,0,0,0,0.0627,0.0632,0.0672,0.0654,0.0659,0.0681,0.0692,0.0696,0.0721,0.0738,0.0746,0.0737,0.0774,0.0782,0.0824,0.085,0.0819,0.0821,0.089,0.0891,0.0891,0.0938,0,0,0,0,0,0,0.0625,0.0631,0.0648,0.0654,0.066,0.0691,0.0692,0.0696,0.0721,0.0724,0.0761,0.0767,0.0775,0.082,0.0826,0.0853,0.0823,0.0889,0.089,0.0891,0.0936,0.094,0.0944,0,0,0,0,0,0.0623,0.0639,0.0649,0.0654,0.0679,0.0691,0.0695,0.0711,0.0721,0.0736,0.0761,0.0767,0.083,0.0823,0.083,0.0858,0.0889,0.089,0.0891,0.0934,0.0939,0.0944,0,0,0,0,0,0,0.0621,0.0643,0.0655,0.0677,0.0692,0.0697,0.0713,0.0723,0.0753,0.0766,0.0779,0.0788,0.0833,0.0835,0.0826,0.0878,0.0858,0.086,0.0888,0.0893,0.0897,0.0923,0.0825,0,0,0,0,0,0.0628,0.0649,0.0665,0.0684,0.0694,0.0708,0.0719,0.0733,0.0753,0.0767,0.0787,0.081,0.0837,0.0858,0.0876,0.091,0.092,0.0929,0.0933,0.0936,0.096,0.0997,0.1007,0.0895,0.0895,0.0895,0,0,0.0626,0.0646,0.0656,0.0685,0.0698,0.0716,0.0717,0.0742,0.0764,0.0772,0.0811,0.0829,0.0848,0.0886,0.0905,0.0896,0.0968,0.0938,0.0941,0.0963,0.0999,0.1011,0.1021,0.0896,0.0896,0.0896,0,0,0.0629,0.0659,0.0675,0.0695,0.0726,0.0736,0.0749,0.0768,0.0789,0.083,0.0836,0.0873,0.0911,0.0926,0.0941,0.0978,0.0987,0.098,0.103,0.1065,0.1075,0.1084,0.1091,0.1101,0.0984,0.0984,0.0984,0,0.0631,0.0656,0.068,0.0704,0.0724,0.0748,0.0768,0.079,0.0821,0.0847,0.0854,0.0919,0.0933,0.098,0.0999,0.099,0.1007,0.1012,0.1073,0.1082,0.1091,0.1096,0.1106,0.0987,0.0987,0.0986,0.0986,0,0.064,0.067,0.0683,0.0724,0.0749,0.0772,0.0805,0.0837,0.0869,0.0895,0.0957,0.0977,0.102,0.1024,0.1035,0.1097,0.1087,0.1073,0.1065,0.1105,0.1107,0.1117,0.099,0.0989,0.0989,0.0988,0,0,0.0617,0.0677,0.0684,0.071,0.0766,0.0784,0.0833,0.0881,0.0924,0.0967,0.1026,0.1073,0.1095,0.1113,0.1117,0.1157,0.1224,0.1157,0.1158,0.1173,0.1297,0.1232,0.1236,0.1232,0.1235,0.1237,0.1266,0,0.0618,0.0659,0.0695,0.0739,0.0763,0.0815,0.0858,0.0914,0.0966,0.1028,0.1073,0.1134,0.1122,0.1161,0.1196,0.1227,0.1256,0.1216,0.1249,0.125,0.1195,0.1248,0.1244,0.1274,0.1276,0.1277,0.1278,0,0.0614,0.0647,0.0685,0.0758,0.0775,0.081,0.0896,0.094,0.1034,0.1087,0.1157,0.1197,0.127,0.1254,0.1324,0.1306,0.1315,0.1327,0.1328,0.1266,0.1205,0.1229,0.1296,0.1294,0.1293,0.1292,0.1291,0,0.0575,0.0642,0.0673,0.0697,0.0778,0.0818,0.0869,0.0961,0.1024,0.1134,0.1202,0.1273,0.1331,0.1366,0.1397,0.1379,0.1469,0.1428,0.1366,0.136,0.1387,0.1377,0.1478,0.1478,0.1478,0.1478,0.1478,0,0.0557,0.0584,0.0662,0.0677,0.0737,0.0805,0.0886,0.0951,0.1069,0.1146,0.123,0.1286,0.1375,0.1429,0.1433,0.1437,0.1489,0.1397,0.1378,0.14,0.1392,0.1393,0.1382,0.1479,0.1479,0.1479,0.1479,0,0.0502,0.0551,0.059,0.0678,0.0717,0.0759,0.09,0.0959,0.1074,0.1179,0.123,0.1339,0.1397,0.1454,0.1514,0.1477,0.1488,0.1468,0.1494,0.1472,0.1339,0.1331,0.1398,0.1397,0.1395,0.1394,0.1393,0,0.0476,0.0486,0.0576,0.0611,0.0654,0.0743,0.0809,0.0948,0.1011,0.1181,0.1213,0.1332,0.1385,0.1408,0.1462,0.1478,0.1457,0.146,0.1402,0.1364,0.1339,0.1332,0.1326,0.1391,0.139,0.139,0.139,0,0.0417,0.0448,0.0483,0.0554,0.0622,0.0702,0.08,0.0851,0.1004,0.1124,0.1195,0.1257,0.1315,0.1351,0.1397,0.1391,0.1465,0.1444,0.1446,0.1392,0.1355,0.133,0.1326,0.1385,0.1385,0.1386,0.1386,0,0.0374,0.0384,0.0433,0.0497,0.0571,0.063,0.0702,0.079,0.0884,0.1072,0.1079,0.1188,0.1287,0.1303,0.1327,0.135,0.1317,0.1283,0.1292,0.1298,0.1256,0.1195,0.118,0,0,0,0,0,0.0334,0.0343,0.0381,0.0445,0.0512,0.0563,0.0681,0.0755,0.09,0.0931,0.1019,0.1067,0.1142,0.1179,0.1179,0.1264,0.1309,0.1261,0.127,0.1357,0.1363,0.1325,0,0,0,0,0,0,0.0305,0.0332,0.0354,0.0386,0.042,0.0497,0.0568,0.0672,0.0694,0.0841,0.0869,0.1004,0.1062,0.112,0.1152,0.1172,0.1161,0.1338,0.1336,0.1354,0.1359,0.1364,0.1327,0,0,0,0,0]},{"header":{"parameterUnit":"m.s-1","parameterCategory":2,"la1":30.2991,"la2":30.254,"lo1":-89.0895,"lo2":-89.0444,"dy":0.0017,"dx":0.0017,"nx":28,"ny":28,"refTime":"2026-01-07T03:00:00:Z","depth":"4","parameterNumber":3,"parameterNumberName":"V-component_of_CURRENTS"},"data":[0,0,0,0,0,0,0,0,0,0,0,0,0,0,0,0,0,0,0,0,0,0,0,0,0,0,0,0,0,0,0,0,0,0,0,0,0,0,0,0,0,0,0,0,0,0,0,0,0,0,0,0,0,0,0,0,0,0,0.039,0.039,0,0.0337,0.0336,0.0336,0.0305,0.0305,0.0305,0.0305,0.0276,0.0276,0.0275,0,0,0,0,0,0,0,0,0,0,0,0,0,0.041,0.041,0.0391,0.039,0.0389,0.0337,0.0336,0.0335,0.0305,0.0305,0.0305,0.0305,0.0277,0.0276,0.0275,0,0,0,0,0,0,0,0,0,0,0,0,0,0.0383,0.041,0.0391,0.0368,0.0366,0.0337,0.0336,0.0335,0.0305,0.0305,0.0305,0.0305,0.0277,0.0276,0.0275,0.027,0,0,0.0272,0.0271,0,0,0,0,0,0,0,0,0.0385,0.0382,0.0372,0.037,0.0367,0.0328,0.0332,0.0315,0.0305,0.0328,0.0305,0.0305,0.0296,0.0294,0.0283,0.0269,0.0268,0.0272,0.0271,0.027,0.027,0,0,0,0,0,0,0,0.0387,0.0384,0.0369,0.0371,0.0368,0.0341,0.0338,0.0328,0.0314,0.0326,0.0324,0.0318,0.0295,0.0284,0.0282,0.0267,0.0272,0.0271,0.027,0.027,0.025,0.025,0,0,0,0,0,0,0.0397,0.0386,0.0371,0.0367,0.0376,0.0341,0.0337,0.034,0.0313,0.0309,0.0318,0.0317,0.0286,0.0283,0.0281,0.0284,0.027,0.0269,0.0269,0.0249,0.025,0.025,0,0,0,0,0,0,0.0398,0.0397,0.0373,0.0375,0.037,0.0341,0.0345,0.0339,0.0333,0.0307,0.0303,0.0319,0.0286,0.0282,0.0272,0.0282,0.0269,0.0268,0.0249,0.025,0.025,0.0283,0,0,0,0,0,0,0.0399,0.0397,0.0406,0.0376,0.0371,0.0366,0.0345,0.0338,0.033,0.0328,0.0306,0.0303,0.0285,0.0273,0.027,0.028,0.0267,0.0249,0.0249,0.025,0.0282,0.0284,0.0286,0,0,0,0,0,0.04,0.0409,0.0407,0.0405,0.0383,0.0367,0.0362,0.034,0.033,0.0333,0.0311,0.0304,0.0273,0.0272,0.0269,0.0279,0.0249,0.0249,0.025,0.0281,0.0284,0.0286,0,0,0,0,0,0,0.0413,0.0406,0.0403,0.0408,0.0395,0.0362,0.0361,0.0346,0.033,0.0328,0.0303,0.0298,0.0291,0.028,0.028,0.0273,0.0261,0.0261,0.0286,0.0288,0.0291,0.0292,0.0266,0,0,0,0,0,0.0423,0.0434,0.0417,0.0421,0.0419,0.0393,0.0384,0.037,0.0349,0.0342,0.0326,0.0307,0.0289,0.0285,0.0269,0.0268,0.0226,0.0272,0.0274,0.0276,0.0274,0.0204,0.0199,0.0251,0.0251,0.0251,0,0,0.0426,0.0426,0.0429,0.0425,0.0414,0.0415,0.0388,0.038,0.038,0.0343,0.0341,0.0315,0.0288,0.0281,0.0278,0.0275,0.0242,0.0277,0.0279,0.0275,0.0203,0.0198,0.0193,0.0251,0.0251,0.0251,0,0,0.0437,0.0442,0.0456,0.0453,0.0445,0.0432,0.0435,0.0412,0.0404,0.0395,0.0364,0.034,0.0327,0.03,0.0286,0.0292,0.0253,0.0297,0.0314,0.0245,0.024,0.0235,0.0182,0.0172,0.0302,0.0302,0.0302,0,0.044,0.0458,0.0454,0.0466,0.0465,0.0445,0.0453,0.0443,0.0419,0.0409,0.0404,0.035,0.0332,0.0303,0.0305,0.0297,0.0255,0.0307,0.0247,0.0241,0.0235,0.0182,0.017,0.0304,0.0303,0.0303,0.0303,0,0.0459,0.0476,0.0483,0.0498,0.0498,0.0501,0.0491,0.0489,0.0477,0.0457,0.0429,0.0389,0.0354,0.0348,0.033,0.0287,0.0269,0.0254,0.0239,0.0232,0.0177,0.0164,0.0306,0.0305,0.0305,0.0305,0,0,0.0455,0.0491,0.0495,0.051,0.0517,0.0515,0.0524,0.0515,0.0505,0.0485,0.0459,0.0426,0.0394,0.0374,0.0343,0.0291,0.0218,0.0262,0.0258,0.0208,0.007,0.0079,0.0066,0.0187,0.0185,0.0183,0.0051,0,0.047,0.0507,0.0517,0.0544,0.056,0.0553,0.0559,0.0548,0.0528,0.05,0.0455,0.0422,0.0408,0.0383,0.0329,0.0242,0.0185,0.0255,0.0086,0.0081,0.0088,0.0052,0.0176,0.0041,0.0038,0.0036,0.0034,0,0.0484,0.0509,0.0546,0.0571,0.0576,0.0587,0.0583,0.0583,0.0545,0.0527,0.0484,0.0441,0.0375,0.0355,0.0207,0.0251,0.0165,0.0098,0.009,0.0077,0.0066,0.0047,0.001,0.0012,0.0014,0.0016,0.0017,0,0.0487,0.0526,0.056,0.057,0.0595,0.0604,0.061,0.0589,0.0586,0.0537,0.0512,0.0433,0.038,0.0269,0.015,0.0166,-0.0027,-0.0027,-0.0101,-0.0101,-0.0083,-0.0076,-0.0149,-0.0149,-0.0149,-0.0148,-0.0148,0,0.0498,0.0522,0.0567,0.0584,0.061,0.0619,0.0627,0.0618,0.0597,0.0584,0.0523,0.0474,0.035,0.0237,0.0133,-0.002,-0.0045,-0.0111,-0.0142,-0.0064,-0.0053,-0.0092,-0.0084,-0.0153,-0.0152,-0.0151,-0.015,0,0.0493,0.0527,0.0564,0.0602,0.0616,0.0631,0.0656,0.0654,0.0633,0.0608,0.0594,0.0489,0.0343,0.0216,0.0021,-0.0045,-0.019,-0.0241,-0.0144,-0.0165,-0.0213,-0.0201,-0.0339,-0.034,-0.034,-0.0341,-0.0342,0,0.0492,0.0516,0.0575,0.0596,0.0616,0.0646,0.0664,0.0674,0.0669,0.0611,0.0588,0.0456,0.0375,0.0113,-0.0025,-0.0224,-0.0245,-0.0313,-0.0262,-0.022,-0.0237,-0.0223,-0.0211,-0.0343,-0.0343,-0.0343,-0.0344,0,0.0481,0.0509,0.0539,0.0588,0.0621,0.066,0.0684,0.0688,0.0688,0.067,0.058,0.0458,0.0285,0.0107,-0.0048,-0.019,-0.0261,-0.0322,-0.0321,-0.0274,-0.0227,-0.024,-0.0226,-0.0346,-0.0346,-0.0346,-0.0346,0,0.0465,0.0483,0.0528,0.0566,0.0608,0.0649,0.0676,0.0672,0.0676,0.0632,0.0593,0.0429,0.0337,0.0119,-0.0031,-0.0159,-0.0184,-0.0207,-0.0212,-0.0211,-0.0122,-0.0041,-0.0144,0,0,0,0,0,0.0444,0.0464,0.0498,0.0547,0.0591,0.0635,0.0668,0.0692,0.0697,0.0648,0.0633,0.0484,0.0265,0.0145,0.0017,-0.0056,-0.0216,-0.021,-0.0246,-0.0362,-0.0359,-0.0275,0,0,0,0,0,0,0.0426,0.046,0.0485,0.052,0.0562,0.0623,0.0661,0.0682,0.0648,0.0634,0.0509,0.0467,0.0237,0.0347,0.0021,-0.0023,-0.0061,-0.0313,-0.0316,-0.0364,-0.0361,-0.0358,-0.0271,0,0,0,0,0]}]]